WZZ2MR LHBP-LEMG

Flight info

Callsign WZZ2MR
Flight time 3h 32m
Altitude 36000
Route GILEP DCT ZOLKU DCT SUBES DCT SUNIS DCT INSAX DCT RADLY DCT TIBRO/N0441F350 DCT VIC DCT GEKBA DCT VAMTU DCT KOLON DCT GANGU DCT PADKO DCT DIVKO DCT NILDU DCT NENDA/N0443F370 DCT BCN DCT RODRA DCT PEXOT DCT EBROX DCT LOTOS DCT TORDU DCT DIKUT DCT SOPET DCT VLC DCT SERRA DCT ASTRO DCT POBOS DCT XEBAR DCT YES DCT MAMIS DCT BAZAS DCT VIBAS
Aircraft A320/M-SDE1E2E3FGIJ1J4RWXY/LB1

Departure

Time 2026-05-08 03:31
Airport Budapest Liszt Ferenc International Airport (LHBP)

Arrival

Time 2026-05-08 07:03
Airport Málaga-Costa del Sol Airport (LEMG)
Time Latitude Longitude Altitude Speed Heading
2026-05-08 02:49 47.43362 19.25556 456 ft 0 kts 312°
2026-05-08 03:23 47.43361 19.25558 457 ft 2 kts 312°
2026-05-08 03:23 47.43348 19.25584 456 ft 3 kts 286°
2026-05-08 03:23 47.43346 19.25616 455 ft 3 kts 253°
2026-05-08 03:23 47.43356 19.25646 457 ft 3 kts 227°
2026-05-08 03:24 47.43361 19.25654 453 ft 0 kts 222°
2026-05-08 03:27 47.43359 19.25651 453 ft 1 kts 222°
2026-05-08 03:27 47.43346 19.25634 457 ft 4 kts 222°
2026-05-08 03:27 47.43322 19.25601 456 ft 6 kts 222°
2026-05-08 03:27 47.43294 19.25553 457 ft 7 kts 245°
2026-05-08 03:28 47.43312 19.25483 457 ft 9 kts 311°
2026-05-08 03:28 47.43343 19.25403 457 ft 10 kts 268°
2026-05-08 03:28 47.43303 19.25333 457 ft 10 kts 222°
2026-05-08 03:28 47.43253 19.25266 457 ft 10 kts 221°
2026-05-08 03:29 47.43198 19.25193 456 ft 8 kts 223°
2026-05-08 03:29 47.43163 19.25145 457 ft 8 kts 222°
2026-05-08 03:29 47.43121 19.25089 457 ft 8 kts 221°
2026-05-08 03:29 47.43083 19.25038 457 ft 5 kts 222°
2026-05-08 03:30 47.43069 19.24992 457 ft 0 kts 310°
2026-05-08 03:30 47.43180 19.24809 456 ft 59 kts 313°
2026-05-08 03:31 47.44252 19.23080 460 ft 157 kts 313°
2026-05-08 03:31 47.45752 19.20666 1484 ft 159 kts 313°
2026-05-08 03:32 47.46492 19.19462 2030 ft 158 kts 313°
2026-05-08 03:32 47.47312 19.18131 2578 ft 158 kts 313°
2026-05-08 03:32 47.48053 19.16931 3058 ft 158 kts 313°
2026-05-08 03:32 47.48715 19.15624 3522 ft 160 kts 300°
2026-05-08 03:33 47.49170 19.14058 3809 ft 176 kts 286°
2026-05-08 03:33 47.49357 19.12151 4013 ft 200 kts 270°
2026-05-08 03:33 47.49134 19.10005 4283 ft 222 kts 252°
2026-05-08 03:33 47.48382 19.07882 4658 ft 242 kts 232°
2026-05-08 03:34 47.47100 19.06159 5186 ft 260 kts 211°
2026-05-08 03:34 47.45418 19.05155 5929 ft 268 kts 199°
2026-05-08 03:34 47.43792 19.03851 6756 ft 269 kts 226°
2026-05-08 03:34 47.42909 19.01453 7552 ft 270 kts 260°
2026-05-08 03:35 47.42918 18.98686 8426 ft 271 kts 274°
2026-05-08 03:35 47.42976 18.95908 9301 ft 272 kts 265°
2026-05-08 03:35 47.42691 18.93144 10145 ft 273 kts 260°
2026-05-08 03:35 47.42333 18.90305 10511 ft 292 kts 259°
2026-05-08 03:36 47.41932 18.87255 10765 ft 311 kts 259°
2026-05-08 03:36 47.41514 18.84126 11350 ft 318 kts 259°
2026-05-08 03:36 47.41083 18.80907 12031 ft 322 kts 259°
2026-05-08 03:36 47.40648 18.77650 12705 ft 325 kts 259°
2026-05-08 03:37 47.40211 18.74356 13393 ft 329 kts 260°
2026-05-08 03:37 47.39769 18.71019 14049 ft 333 kts 260°
2026-05-08 03:37 47.39322 18.67656 14661 ft 336 kts 260°
2026-05-08 03:37 47.38869 18.64261 15282 ft 338 kts 260°
2026-05-08 03:38 47.38411 18.60841 15895 ft 341 kts 260°
2026-05-08 03:38 47.37948 18.57394 16499 ft 344 kts 260°
2026-05-08 03:38 47.37487 18.53963 17089 ft 347 kts 260°
2026-05-08 03:38 47.37016 18.50463 17699 ft 350 kts 260°
2026-05-08 03:39 47.36540 18.46930 18323 ft 353 kts 260°
2026-05-08 03:39 47.36061 18.43368 18872 ft 355 kts 260°
2026-05-08 03:39 47.35578 18.39786 19447 ft 357 kts 260°
2026-05-08 03:39 47.35087 18.36182 20039 ft 359 kts 259°
2026-05-08 03:40 47.34591 18.32567 20627 ft 361 kts 259°
2026-05-08 03:40 47.34090 18.28930 21196 ft 363 kts 259°
2026-05-08 03:40 47.33591 18.25321 21747 ft 365 kts 259°
2026-05-08 03:40 47.33083 18.21647 22299 ft 367 kts 259°
2026-05-08 03:41 47.32575 18.17952 22849 ft 369 kts 259°
2026-05-08 03:41 47.32062 18.14228 23403 ft 371 kts 259°
2026-05-08 03:41 47.31546 18.10491 23881 ft 373 kts 259°
2026-05-08 03:41 47.31024 18.06732 24301 ft 376 kts 259°
2026-05-08 03:42 47.30496 18.02947 24752 ft 377 kts 259°
2026-05-08 03:42 47.29967 17.99157 25201 ft 378 kts 259°
2026-05-08 03:42 47.29435 17.95356 25639 ft 379 kts 259°
2026-05-08 03:42 47.28899 17.91543 26079 ft 380 kts 259°
2026-05-08 03:43 47.28369 17.87780 26501 ft 381 kts 259°
2026-05-08 03:43 47.27828 17.83952 26917 ft 383 kts 259°
2026-05-08 03:43 47.27285 17.80109 27350 ft 383 kts 259°
2026-05-08 03:43 47.26739 17.76262 27770 ft 385 kts 259°
2026-05-08 03:44 47.26189 17.72401 28168 ft 385 kts 258°
2026-05-08 03:44 47.25638 17.68542 28604 ft 386 kts 258°
2026-05-08 03:44 47.25086 17.64671 29018 ft 387 kts 258°
2026-05-08 03:44 47.24541 17.60841 29416 ft 388 kts 259°
2026-05-08 03:45 47.23986 17.56942 29782 ft 390 kts 259°
2026-05-08 03:45 47.23423 17.53031 30158 ft 392 kts 259°
2026-05-08 03:45 47.22857 17.49104 30467 ft 393 kts 258°
2026-05-08 03:45 47.22285 17.45161 30845 ft 393 kts 258°
2026-05-08 03:46 47.21715 17.41243 31269 ft 392 kts 258°
2026-05-08 03:46 47.21146 17.37330 31686 ft 391 kts 258°
2026-05-08 03:46 47.20578 17.33430 32100 ft 390 kts 258°
2026-05-08 03:46 47.20010 17.29535 32518 ft 389 kts 258°
2026-05-08 03:47 47.19450 17.25704 32928 ft 388 kts 258°
2026-05-08 03:47 47.18880 17.21830 33338 ft 387 kts 258°
2026-05-08 03:47 47.18310 17.17968 33767 ft 386 kts 258°
2026-05-08 03:47 47.17740 17.14113 34171 ft 386 kts 258°
2026-05-08 03:48 47.17171 17.10266 34475 ft 386 kts 258°
2026-05-08 03:48 47.16624 17.06579 34734 ft 387 kts 258°
2026-05-08 03:48 47.16046 17.02711 34992 ft 388 kts 258°
2026-05-08 03:49 47.15259 16.97436 35344 ft 388 kts 258°
2026-05-08 03:49 47.14677 16.93557 35599 ft 389 kts 257°
2026-05-08 03:49 47.14093 16.89674 35845 ft 390 kts 257°
2026-05-08 03:49 47.13510 16.85775 36024 ft 392 kts 257°
2026-05-08 03:50 47.12922 16.81851 36076 ft 394 kts 257°
2026-05-08 03:50 47.11739 16.74026 36076 ft 396 kts 257°
2026-05-08 03:51 47.10539 16.66135 36083 ft 396 kts 257°
2026-05-08 03:51 47.09334 16.58243 36082 ft 396 kts 257°
2026-05-08 03:52 47.08125 16.50357 36083 ft 396 kts 257°
2026-05-08 03:52 47.07006 16.43107 36085 ft 397 kts 257°
2026-05-08 03:53 47.05785 16.35270 36084 ft 397 kts 257°
2026-05-08 03:53 47.04561 16.27388 36084 ft 397 kts 257°
2026-05-08 03:54 47.03339 16.19506 36094 ft 396 kts 257°
2026-05-08 03:54 47.02119 16.11697 36096 ft 396 kts 256°
2026-05-08 03:55 46.99997 16.04345 36103 ft 397 kts 240°
2026-05-08 03:55 46.97112 15.97448 36101 ft 397 kts 240°
2026-05-08 03:56 46.94229 15.90551 36100 ft 397 kts 240°
2026-05-08 03:56 46.91340 15.83668 36098 ft 397 kts 240°
2026-05-08 03:57 46.88481 15.76873 36091 ft 396 kts 240°
2026-05-08 03:57 46.85602 15.70025 36102 ft 395 kts 240°
2026-05-08 03:58 46.82729 15.63212 36101 ft 395 kts 240°
2026-05-08 03:58 46.79990 15.56739 36103 ft 395 kts 240°
2026-05-08 03:59 46.77091 15.49927 36098 ft 395 kts 240°
2026-05-08 03:59 46.74206 15.43175 36089 ft 395 kts 240°
2026-05-08 04:00 46.71304 15.36383 36102 ft 394 kts 240°
2026-05-08 04:00 46.68399 15.29604 36107 ft 394 kts 240°
2026-05-08 04:01 46.65519 15.22879 36111 ft 394 kts 242°
2026-05-08 04:01 46.63415 15.15600 36103 ft 391 kts 252°
2026-05-08 04:02 46.61650 15.08124 36103 ft 391 kts 252°
2026-05-08 04:02 46.59863 15.00656 36086 ft 391 kts 252°
2026-05-08 04:03 46.58075 14.93247 36089 ft 391 kts 251°
2026-05-08 04:03 46.55380 14.82057 36104 ft 391 kts 252°
2026-05-08 04:04 46.53581 14.74600 36101 ft 391 kts 251°
2026-05-08 04:04 46.51766 14.67153 36106 ft 391 kts 251°
2026-05-08 04:05 46.49959 14.59757 36115 ft 391 kts 251°
2026-05-08 04:05 46.48141 14.52314 36115 ft 391 kts 251°
2026-05-08 04:06 46.46320 14.44872 36103 ft 391 kts 251°
2026-05-08 04:06 46.44493 14.37444 36115 ft 391 kts 251°
2026-05-08 04:07 46.42663 14.30018 36120 ft 391 kts 251°
2026-05-08 04:07 46.40843 14.22652 36114 ft 391 kts 251°
2026-05-08 04:08 46.39009 14.15241 36117 ft 391 kts 251°
2026-05-08 04:08 46.37164 14.07811 35126 ft 403 kts 251°
2026-05-08 04:09 46.36175 14.03848 33083 ft 428 kts 251°
2026-05-08 04:09 46.35232 14.00100 34458 ft 375 kts 251°
2026-05-08 04:09 46.34349 13.96597 34629 ft 373 kts 251°
2026-05-08 04:09 46.33466 13.93089 34640 ft 379 kts 251°
2026-05-08 04:10 46.31648 13.85877 34950 ft 382 kts 251°
2026-05-08 04:10 46.30737 13.82264 35243 ft 383 kts 251°
2026-05-08 04:10 46.29823 13.78642 35490 ft 384 kts 250°
2026-05-08 04:11 46.28907 13.75014 35736 ft 385 kts 250°
2026-05-08 04:11 46.27984 13.71375 35969 ft 387 kts 250°
2026-05-08 04:11 46.26134 13.64095 36082 ft 389 kts 250°
2026-05-08 04:12 46.24263 13.56763 36075 ft 389 kts 250°
2026-05-08 04:12 46.22390 13.49434 36062 ft 389 kts 250°
2026-05-08 04:13 46.20368 13.42185 36066 ft 389 kts 247°
2026-05-08 04:13 46.18103 13.35087 36050 ft 389 kts 246°
2026-05-08 04:14 46.15818 13.28055 35784 ft 388 kts 246°
2026-05-08 04:14 46.14693 13.24537 35541 ft 385 kts 246°
2026-05-08 04:14 46.13584 13.21027 35288 ft 384 kts 246°
2026-05-08 04:15 46.12483 13.17529 35086 ft 383 kts 246°
2026-05-08 04:15 46.11388 13.14046 35057 ft 381 kts 246°
2026-05-08 04:15 46.09188 13.07082 35056 ft 382 kts 246°
2026-05-08 04:16 46.07000 13.00184 35056 ft 382 kts 246°
2026-05-08 04:16 46.04782 12.93234 35001 ft 382 kts 246°
2026-05-08 04:17 46.02560 12.86297 35005 ft 382 kts 246°
2026-05-08 04:17 46.00349 12.79405 35003 ft 382 kts 246°
2026-05-08 04:18 45.98120 12.72471 35069 ft 382 kts 245°
2026-05-08 04:18 45.95889 12.65517 35058 ft 384 kts 245°
2026-05-08 04:19 45.93648 12.58554 35057 ft 384 kts 245°
2026-05-08 04:19 45.91391 12.51589 35059 ft 385 kts 245°
2026-05-08 04:20 45.89146 12.44669 35062 ft 385 kts 245°
2026-05-08 04:20 45.86887 12.37718 35066 ft 384 kts 245°
2026-05-08 04:21 45.84621 12.30801 35072 ft 383 kts 245°
2026-05-08 04:21 45.82358 12.23893 35068 ft 383 kts 245°
2026-05-08 04:22 45.80105 12.17015 35057 ft 384 kts 245°
2026-05-08 04:22 45.77826 12.10081 35055 ft 385 kts 245°
2026-05-08 04:23 45.75538 12.03138 35053 ft 386 kts 245°
2026-05-08 04:23 45.73241 11.96188 35053 ft 386 kts 244°
2026-05-08 04:24 45.70962 11.89310 35074 ft 385 kts 244°
2026-05-08 04:24 45.68664 11.82416 35078 ft 383 kts 244°
2026-05-08 04:25 45.66366 11.75526 35071 ft 384 kts 244°
2026-05-08 04:25 45.64056 11.68620 35058 ft 386 kts 244°
2026-05-08 04:26 45.61769 11.61683 35055 ft 386 kts 245°
2026-05-08 04:26 45.59520 11.54757 35057 ft 387 kts 245°
2026-05-08 04:27 45.57246 11.47794 35056 ft 386 kts 245°
2026-05-08 04:27 45.54969 11.40862 35070 ft 385 kts 245°
2026-05-08 04:28 45.52695 11.33958 35072 ft 384 kts 244°
2026-05-08 04:28 45.50437 11.27127 35066 ft 383 kts 244°
2026-05-08 04:29 45.48158 11.20266 35057 ft 383 kts 244°
2026-05-08 04:29 45.45885 11.13419 35050 ft 382 kts 244°
2026-05-08 04:30 45.43611 11.06579 35045 ft 382 kts 244°
2026-05-08 04:30 45.41349 10.99793 35044 ft 381 kts 244°
2026-05-08 04:31 45.39072 10.92992 35048 ft 380 kts 244°
2026-05-08 04:31 45.36792 10.86207 35047 ft 381 kts 244°
2026-05-08 04:32 45.34503 10.79413 35038 ft 381 kts 244°
2026-05-08 04:32 45.32210 10.72611 35035 ft 382 kts 244°
2026-05-08 04:33 45.29926 10.65849 35035 ft 382 kts 244°
2026-05-08 04:33 45.27620 10.59046 35020 ft 382 kts 243°
2026-05-08 04:34 45.25312 10.52267 35037 ft 381 kts 243°
2026-05-08 04:34 45.23006 10.45505 35043 ft 380 kts 243°
2026-05-08 04:35 45.20712 10.38793 35043 ft 381 kts 243°
2026-05-08 04:35 45.18398 10.32023 35036 ft 382 kts 243°
2026-05-08 04:36 45.16071 10.25245 35023 ft 382 kts 243°
2026-05-08 04:36 45.13737 10.18474 35029 ft 383 kts 243°
2026-05-08 04:37 45.11405 10.11702 35033 ft 382 kts 243°
2026-05-08 04:37 45.09086 10.04989 35043 ft 382 kts 243°
2026-05-08 04:38 45.06750 9.98244 35051 ft 382 kts 243°
2026-05-08 04:38 45.04399 9.91492 35038 ft 383 kts 243°
2026-05-08 04:39 45.02042 9.84738 35037 ft 384 kts 243°
2026-05-08 04:39 44.99698 9.78018 35040 ft 384 kts 243°
2026-05-08 04:40 44.97330 9.71259 35043 ft 384 kts 242°
2026-05-08 04:40 44.94950 9.64509 35040 ft 384 kts 242°
2026-05-08 04:41 44.92576 9.57767 35044 ft 383 kts 242°
2026-05-08 04:41 44.90212 9.51069 35040 ft 385 kts 242°
2026-05-08 04:42 44.87822 9.44308 35029 ft 386 kts 242°
2026-05-08 04:42 44.85420 9.37532 35027 ft 387 kts 242°
2026-05-08 04:43 44.83010 9.30756 35027 ft 387 kts 242°
2026-05-08 04:43 44.80586 9.23976 35028 ft 387 kts 242°
2026-05-08 04:44 44.78184 9.17256 35032 ft 387 kts 242°
2026-05-08 04:44 44.75761 9.10485 35047 ft 387 kts 242°
2026-05-08 04:45 44.73333 9.03713 35029 ft 389 kts 242°
2026-05-08 04:45 44.70889 8.96924 35014 ft 390 kts 242°
2026-05-08 04:46 44.68453 8.90170 35009 ft 390 kts 242°
2026-05-08 04:46 44.65990 8.83381 35006 ft 390 kts 242°
2026-05-08 04:47 44.63521 8.76588 35006 ft 389 kts 240°
2026-05-08 04:47 44.61066 8.69824 35026 ft 389 kts 241°
2026-05-08 04:48 44.58623 8.63103 35021 ft 389 kts 240°
2026-05-08 04:48 44.56145 8.56356 35019 ft 389 kts 240°
2026-05-08 04:49 44.53669 8.49601 35023 ft 390 kts 240°
2026-05-08 04:49 44.51190 8.42854 35047 ft 389 kts 240°
2026-05-08 04:50 44.48711 8.36107 35047 ft 389 kts 240°
2026-05-08 04:50 44.46246 8.29404 35045 ft 390 kts 240°
2026-05-08 04:51 44.43750 8.22662 35038 ft 390 kts 240°
2026-05-08 04:51 44.41241 8.15918 35042 ft 391 kts 240°
2026-05-08 04:52 44.38748 8.09211 35043 ft 391 kts 240°
2026-05-08 04:52 44.36233 8.02462 35044 ft 391 kts 240°
2026-05-08 04:53 44.33709 7.95722 35049 ft 392 kts 240°
2026-05-08 04:53 44.31184 7.88979 35047 ft 392 kts 240°
2026-05-08 04:54 44.28652 7.82233 35048 ft 392 kts 240°
2026-05-08 04:54 44.25544 7.76116 35043 ft 390 kts 224°
2026-05-08 04:55 44.21501 7.71085 35041 ft 390 kts 221°
2026-05-08 04:55 44.17436 7.66087 35042 ft 390 kts 221°
2026-05-08 04:56 44.13521 7.60881 35037 ft 390 kts 228°
2026-05-08 04:56 44.09972 7.55164 35040 ft 390 kts 228°
2026-05-08 04:57 44.06431 7.49514 35040 ft 390 kts 228°
2026-05-08 04:57 44.02860 7.43825 35032 ft 391 kts 228°
2026-05-08 04:58 43.99288 7.38135 35034 ft 391 kts 228°
2026-05-08 04:58 43.95713 7.32450 35007 ft 391 kts 228°
2026-05-08 04:59 43.92158 7.26810 35006 ft 391 kts 228°
2026-05-08 04:59 43.88575 7.21125 35000 ft 392 kts 228°
2026-05-08 05:00 43.85006 7.15492 35003 ft 392 kts 227°
2026-05-08 05:00 43.82707 7.11873 35005 ft 392 kts 228°
2026-05-08 05:01 43.79114 7.06207 35001 ft 392 kts 228°
2026-05-08 05:01 43.75536 7.00577 35004 ft 392 kts 227°
2026-05-08 05:02 43.72162 6.94659 35004 ft 394 kts 238°
2026-05-08 05:02 43.69957 6.87706 35006 ft 396 kts 245°
2026-05-08 05:03 43.67885 6.80653 35018 ft 396 kts 245°
2026-05-08 05:03 43.65813 6.73641 35014 ft 397 kts 245°
2026-05-08 05:04 43.63717 6.66584 35026 ft 398 kts 245°
2026-05-08 05:04 43.61621 6.59516 35007 ft 398 kts 245°
2026-05-08 05:05 43.59516 6.52446 35012 ft 398 kts 245°
2026-05-08 05:05 43.57417 6.45422 35017 ft 399 kts 245°
2026-05-08 05:06 43.55303 6.38349 35008 ft 399 kts 245°
2026-05-08 05:06 43.53179 6.31267 35006 ft 400 kts 245°
2026-05-08 05:07 43.51045 6.24184 35007 ft 400 kts 245°
2026-05-08 05:07 43.48922 6.17148 35007 ft 401 kts 245°
2026-05-08 05:08 43.46776 6.10064 34994 ft 401 kts 245°
2026-05-08 05:08 43.44627 6.02981 35008 ft 401 kts 246°
2026-05-08 05:09 43.42476 5.95891 35004 ft 402 kts 246°
2026-05-08 05:09 43.40312 5.88793 35008 ft 402 kts 246°
2026-05-08 05:10 43.37068 5.78203 35008 ft 403 kts 246°
2026-05-08 05:11 43.34882 5.71120 35010 ft 403 kts 246°
2026-05-08 05:11 43.32695 5.64033 35017 ft 403 kts 246°
2026-05-08 05:12 43.30522 5.56988 35016 ft 403 kts 246°
2026-05-08 05:12 43.28329 5.49899 35002 ft 403 kts 247°
2026-05-08 05:13 43.26133 5.42821 35007 ft 403 kts 247°
2026-05-08 05:13 43.23939 5.35795 35012 ft 403 kts 247°
2026-05-08 05:14 43.21731 5.28733 35020 ft 403 kts 248°
2026-05-08 05:14 43.19531 5.21682 35019 ft 402 kts 248°
2026-05-08 05:15 43.17321 5.14642 35015 ft 402 kts 248°
2026-05-08 05:15 43.15106 5.07611 35019 ft 402 kts 248°
2026-05-08 05:16 43.12908 5.00638 35018 ft 402 kts 247°
2026-05-08 05:16 43.10686 4.93624 35012 ft 401 kts 248°
2026-05-08 05:17 43.08465 4.86636 35028 ft 400 kts 248°
2026-05-08 05:17 43.06143 4.79723 35025 ft 401 kts 242°
2026-05-08 05:18 43.02531 4.73936 35027 ft 408 kts 225°
2026-05-08 05:18 42.98279 4.68808 35021 ft 408 kts 225°
2026-05-08 05:19 42.94034 4.63676 35019 ft 408 kts 225°
2026-05-08 05:19 42.89779 4.58553 35010 ft 408 kts 226°
2026-05-08 05:20 42.85526 4.53444 35021 ft 407 kts 226°
2026-05-08 05:20 42.81305 4.48382 35024 ft 407 kts 226°
2026-05-08 05:21 42.77058 4.43281 35027 ft 407 kts 226°
2026-05-08 05:21 42.72811 4.38202 35024 ft 406 kts 226°
2026-05-08 05:22 42.68561 4.33133 35023 ft 406 kts 226°
2026-05-08 05:22 42.64342 4.28106 35021 ft 406 kts 226°
2026-05-08 05:23 42.60093 4.23049 35020 ft 406 kts 226°
2026-05-08 05:23 42.55841 4.17997 35021 ft 406 kts 226°
2026-05-08 05:24 42.51590 4.12964 35009 ft 405 kts 227°
2026-05-08 05:24 42.47383 4.07990 35020 ft 403 kts 227°
2026-05-08 05:25 42.43157 4.03001 35021 ft 402 kts 227°
2026-05-08 05:25 42.38939 3.98032 35021 ft 402 kts 227°
2026-05-08 05:26 42.34720 3.93075 35012 ft 401 kts 227°
2026-05-08 05:26 42.30544 3.88169 35005 ft 400 kts 228°
2026-05-08 05:27 42.26406 3.83197 35019 ft 393 kts 233°
2026-05-08 05:27 42.23155 3.77414 34998 ft 385 kts 241°
2026-05-08 05:28 42.20064 3.71520 35000 ft 385 kts 241°
2026-05-08 05:28 42.16988 3.65680 35002 ft 384 kts 240°
2026-05-08 05:29 42.13891 3.59812 34987 ft 384 kts 241°
2026-05-08 05:29 42.10790 3.53968 35003 ft 383 kts 241°
2026-05-08 05:30 42.07694 3.48146 35003 ft 382 kts 241°
2026-05-08 05:30 42.04602 3.42331 35007 ft 382 kts 241°
2026-05-08 05:31 42.01534 3.36565 35005 ft 381 kts 240°
2026-05-08 05:31 41.98442 3.30774 35002 ft 381 kts 240°
2026-05-08 05:32 41.95353 3.24995 35009 ft 381 kts 240°
2026-05-08 05:32 41.92263 3.19224 34988 ft 380 kts 241°
2026-05-08 05:33 41.89199 3.13526 34998 ft 378 kts 240°
2026-05-08 05:33 41.86121 3.07807 35002 ft 378 kts 241°
2026-05-08 05:34 41.83047 3.02100 34985 ft 378 kts 240°
2026-05-08 05:34 41.79967 2.96387 34988 ft 378 kts 240°
2026-05-08 05:35 41.76904 2.90720 34992 ft 378 kts 240°
2026-05-08 05:35 41.73811 2.85019 34971 ft 378 kts 240°
2026-05-08 05:36 41.70718 2.79329 34975 ft 378 kts 240°
2026-05-08 05:36 41.67624 2.73652 34997 ft 378 kts 239°
2026-05-08 05:37 41.64411 2.68072 34995 ft 379 kts 238°
2026-05-08 05:37 41.61164 2.62580 34988 ft 379 kts 238°
2026-05-08 05:38 41.57895 2.57032 34989 ft 380 kts 238°
2026-05-08 05:38 41.54650 2.51475 34995 ft 380 kts 238°
2026-05-08 05:39 41.51409 2.45907 34970 ft 379 kts 237°
2026-05-08 05:39 41.48183 2.40399 34990 ft 379 kts 237°
2026-05-08 05:40 41.44927 2.34863 34994 ft 379 kts 237°
2026-05-08 05:40 41.41671 2.29339 35005 ft 379 kts 237°
2026-05-08 05:41 41.38416 2.23814 35010 ft 379 kts 237°
2026-05-08 05:41 41.35153 2.18286 35010 ft 380 kts 237°
2026-05-08 05:42 41.31911 2.12797 34986 ft 380 kts 236°
2026-05-08 05:42 41.28551 2.07371 35008 ft 380 kts 233°
2026-05-08 05:43 41.24996 2.02160 35014 ft 381 kts 232°
2026-05-08 05:43 41.21415 1.96984 35017 ft 380 kts 233°
2026-05-08 05:44 41.17869 1.91783 35017 ft 380 kts 233°
2026-05-08 05:44 41.14365 1.86610 35013 ft 379 kts 232°
2026-05-08 05:45 41.10837 1.81406 34998 ft 379 kts 232°
2026-05-08 05:45 41.07988 1.77212 35000 ft 379 kts 232°
2026-05-08 05:46 41.04457 1.72022 35006 ft 379 kts 232°
2026-05-08 05:46 41.00343 1.66006 35011 ft 379 kts 232°
2026-05-08 05:47 40.96807 1.60838 35012 ft 379 kts 232°
2026-05-08 05:47 40.93871 1.56546 35011 ft 379 kts 232°
2026-05-08 05:48 40.90335 1.51383 35020 ft 379 kts 231°
2026-05-08 05:48 40.86218 1.45393 34991 ft 379 kts 231°
2026-05-08 05:49 40.82667 1.40230 34998 ft 380 kts 231°
2026-05-08 05:49 40.79711 1.35950 35011 ft 380 kts 231°
2026-05-08 05:50 40.76149 1.30799 35011 ft 380 kts 231°
2026-05-08 05:50 40.72004 1.24826 35011 ft 380 kts 231°
2026-05-08 05:51 40.69016 1.20514 35015 ft 380 kts 231°
2026-05-08 05:51 40.65481 1.15411 35013 ft 380 kts 231°
2026-05-08 05:52 40.61913 1.10278 35013 ft 380 kts 230°
2026-05-08 05:52 40.58341 1.05141 35011 ft 380 kts 230°
2026-05-08 05:53 40.54765 1.00011 35010 ft 380 kts 230°
2026-05-08 05:53 40.51208 0.94925 35011 ft 381 kts 230°
2026-05-08 05:54 40.47621 0.89809 35011 ft 381 kts 230°
2026-05-08 05:54 40.44037 0.84691 35000 ft 380 kts 230°
2026-05-08 05:55 40.40450 0.79580 35006 ft 380 kts 230°
2026-05-08 05:55 40.36882 0.74519 35009 ft 380 kts 229°
2026-05-08 05:56 40.33287 0.69425 35005 ft 381 kts 229°
2026-05-08 05:56 40.29688 0.64334 35004 ft 381 kts 229°
2026-05-08 05:57 40.26089 0.59248 35004 ft 381 kts 229°
2026-05-08 05:57 40.22488 0.54166 34995 ft 380 kts 229°
2026-05-08 05:58 40.18919 0.49131 34998 ft 380 kts 229°
2026-05-08 05:58 40.15317 0.44077 35004 ft 379 kts 229°
2026-05-08 05:59 40.11717 0.39035 35006 ft 379 kts 229°
2026-05-08 05:59 40.08124 0.33995 35017 ft 379 kts 229°
2026-05-08 06:00 40.04552 0.28995 35007 ft 379 kts 228°
2026-05-08 06:00 40.00954 0.23980 34995 ft 378 kts 228°
2026-05-08 06:01 39.97369 0.18976 35002 ft 377 kts 229°
2026-05-08 06:01 39.93792 0.13982 35001 ft 377 kts 229°
2026-05-08 06:02 39.90237 0.09027 35001 ft 376 kts 228°
2026-05-08 06:02 39.86655 0.04061 35000 ft 376 kts 228°
2026-05-08 06:03 39.83067 -0.00900 35012 ft 376 kts 228°
2026-05-08 06:03 39.79481 -0.05854 34999 ft 375 kts 227°
2026-05-08 06:04 39.75938 -0.10751 35011 ft 374 kts 227°
2026-05-08 06:04 39.72376 -0.15662 35013 ft 373 kts 227°
2026-05-08 06:05 39.68822 -0.20557 35014 ft 372 kts 227°
2026-05-08 06:05 39.65270 -0.25442 35014 ft 372 kts 227°
2026-05-08 06:06 39.61743 -0.30282 35013 ft 372 kts 227°
2026-05-08 06:06 39.58195 -0.35151 35013 ft 371 kts 227°
2026-05-08 06:07 39.54645 -0.40002 35010 ft 371 kts 227°
2026-05-08 06:07 39.51090 -0.44847 35012 ft 371 kts 227°
2026-05-08 06:08 39.47687 -0.49795 35009 ft 370 kts 233°
2026-05-08 06:08 39.44585 -0.55114 35010 ft 370 kts 232°
2026-05-08 06:09 39.41474 -0.60424 35012 ft 370 kts 232°
2026-05-08 06:09 39.38359 -0.65724 35011 ft 370 kts 232°
2026-05-08 06:10 39.35266 -0.70993 35007 ft 370 kts 232°
2026-05-08 06:10 39.32148 -0.76288 34986 ft 370 kts 232°
2026-05-08 06:11 39.29019 -0.81585 35002 ft 372 kts 232°
2026-05-08 06:11 39.25881 -0.86895 34996 ft 372 kts 232°
2026-05-08 06:12 39.22735 -0.92209 35008 ft 373 kts 232°
2026-05-08 06:12 39.19606 -0.97484 35008 ft 373 kts 232°
2026-05-08 06:13 39.16452 -1.02803 35007 ft 373 kts 232°
2026-05-08 06:13 39.13292 -1.08113 35014 ft 373 kts 231°
2026-05-08 06:14 39.10136 -1.13416 35006 ft 373 kts 231°
2026-05-08 06:14 39.06999 -1.18676 35032 ft 373 kts 231°
2026-05-08 06:15 39.03828 -1.23965 35028 ft 373 kts 231°
2026-05-08 06:15 39.00666 -1.29249 35028 ft 373 kts 231°
2026-05-08 06:16 38.97508 -1.34526 35029 ft 373 kts 231°
2026-05-08 06:16 38.94362 -1.39765 35027 ft 373 kts 231°
2026-05-08 06:17 38.89610 -1.47667 35024 ft 372 kts 231°
2026-05-08 06:17 38.86439 -1.52920 35056 ft 372 kts 230°
2026-05-08 06:18 38.83275 -1.58163 35044 ft 371 kts 230°
2026-05-08 06:18 38.80132 -1.63354 35035 ft 371 kts 230°
2026-05-08 06:19 38.76972 -1.68572 35026 ft 371 kts 230°
2026-05-08 06:19 38.73809 -1.73784 35023 ft 370 kts 230°
2026-05-08 06:20 38.70638 -1.78989 35020 ft 370 kts 230°
2026-05-08 06:20 38.67491 -1.84150 35019 ft 370 kts 230°
2026-05-08 06:21 38.64323 -1.89348 35026 ft 370 kts 230°
2026-05-08 06:21 38.61152 -1.94529 35038 ft 370 kts 230°
2026-05-08 06:22 38.57981 -1.99702 35031 ft 369 kts 230°
2026-05-08 06:22 38.54833 -2.04834 35021 ft 369 kts 230°
2026-05-08 06:23 38.51669 -2.09988 35023 ft 369 kts 230°
2026-05-08 06:23 38.48506 -2.15142 35025 ft 369 kts 230°
2026-05-08 06:24 38.45338 -2.20298 35020 ft 369 kts 229°
2026-05-08 06:24 38.42275 -2.25266 35024 ft 369 kts 229°
2026-05-08 06:25 38.39095 -2.30403 35039 ft 370 kts 229°
2026-05-08 06:25 38.35880 -2.35511 35009 ft 369 kts 225°
2026-05-08 06:26 38.32357 -2.40260 35004 ft 369 kts 225°
2026-05-08 06:26 38.28859 -2.44984 34987 ft 369 kts 225°
2026-05-08 06:27 38.25323 -2.49736 34994 ft 370 kts 224°
2026-05-08 06:27 38.21781 -2.54473 34990 ft 369 kts 224°
2026-05-08 06:28 38.18237 -2.59205 34994 ft 370 kts 224°
2026-05-08 06:28 38.14715 -2.63915 34969 ft 369 kts 225°
2026-05-08 06:29 38.11174 -2.68640 35020 ft 369 kts 225°
2026-05-08 06:29 38.07635 -2.73353 35012 ft 369 kts 224°
2026-05-08 06:30 38.04092 -2.78062 34995 ft 369 kts 225°
2026-05-08 06:30 38.00548 -2.82769 34991 ft 369 kts 225°
2026-05-08 06:31 37.97018 -2.87443 34986 ft 369 kts 224°
2026-05-08 06:31 37.93466 -2.92138 34980 ft 369 kts 224°
2026-05-08 06:32 37.89912 -2.96831 34972 ft 369 kts 225°
2026-05-08 06:32 37.86361 -3.01515 34981 ft 368 kts 225°
2026-05-08 06:33 37.82842 -3.06157 35018 ft 368 kts 225°
2026-05-08 06:33 37.79302 -3.10819 34975 ft 367 kts 225°
2026-05-08 06:34 37.75763 -3.15471 34968 ft 367 kts 225°
2026-05-08 06:34 37.72213 -3.20118 34965 ft 368 kts 225°
2026-05-08 06:35 37.68685 -3.24742 34446 ft 371 kts 224°
2026-05-08 06:35 37.66880 -3.27102 33575 ft 376 kts 225°
2026-05-08 06:35 37.65057 -3.29484 32743 ft 379 kts 225°
2026-05-08 06:36 37.63223 -3.31880 31940 ft 380 kts 225°
2026-05-08 06:36 37.61379 -3.34290 31121 ft 383 kts 225°
2026-05-08 06:36 37.59528 -3.36712 30301 ft 385 kts 225°
2026-05-08 06:36 37.57665 -3.39146 29351 ft 387 kts 225°
2026-05-08 06:37 37.55787 -3.41593 28339 ft 390 kts 225°
2026-05-08 06:37 37.53905 -3.44040 27635 ft 386 kts 226°
2026-05-08 06:37 37.52072 -3.46424 26955 ft 382 kts 225°
2026-05-08 06:37 37.50233 -3.48815 26277 ft 378 kts 225°
2026-05-08 06:38 37.48409 -3.51183 25616 ft 375 kts 225°
2026-05-08 06:38 37.46604 -3.53528 24979 ft 371 kts 225°
2026-05-08 06:38 37.44813 -3.55847 24359 ft 368 kts 225°
2026-05-08 06:38 37.43035 -3.58146 23732 ft 365 kts 225°
2026-05-08 06:39 37.41270 -3.60425 23052 ft 361 kts 226°
2026-05-08 06:39 37.39657 -3.62818 22426 ft 358 kts 233°
2026-05-08 06:39 37.38399 -3.65454 21827 ft 356 kts 241°
2026-05-08 06:39 37.37398 -3.68300 21221 ft 355 kts 244°
2026-05-08 06:40 37.36413 -3.71132 20651 ft 352 kts 243°
2026-05-08 06:40 37.35427 -3.73939 20091 ft 350 kts 243°
2026-05-08 06:40 37.34443 -3.76730 19583 ft 348 kts 244°
2026-05-08 06:40 37.33465 -3.79498 19042 ft 345 kts 244°
2026-05-08 06:41 37.32491 -3.82249 18545 ft 343 kts 244°
2026-05-08 06:41 37.31536 -3.84944 18002 ft 341 kts 244°
2026-05-08 06:41 37.30573 -3.87661 17375 ft 340 kts 244°
2026-05-08 06:41 37.29619 -3.90359 16918 ft 335 kts 244°
2026-05-08 06:42 37.28677 -3.93026 16290 ft 333 kts 244°
2026-05-08 06:42 37.27740 -3.95681 15712 ft 331 kts 244°
2026-05-08 06:42 37.26808 -3.98318 15128 ft 329 kts 244°
2026-05-08 06:42 37.25882 -4.00932 14554 ft 327 kts 244°
2026-05-08 06:43 37.24960 -4.03526 14008 ft 324 kts 244°
2026-05-08 06:43 37.24042 -4.06096 13397 ft 322 kts 244°
2026-05-08 06:43 37.23129 -4.08655 12722 ft 321 kts 244°
2026-05-08 06:43 37.22231 -4.11178 12034 ft 321 kts 244°
2026-05-08 06:44 37.21353 -4.13755 11396 ft 322 kts 249°
2026-05-08 06:44 37.20817 -4.16480 10811 ft 323 kts 260°
2026-05-08 06:44 37.20710 -4.19244 10675 ft 311 kts 266°
2026-05-08 06:44 37.20687 -4.21892 10546 ft 297 kts 266°
2026-05-08 06:45 37.20655 -4.24430 10422 ft 285 kts 266°
2026-05-08 06:45 37.20622 -4.26875 10280 ft 276 kts 266°
2026-05-08 06:45 37.20589 -4.29258 10046 ft 271 kts 266°
2026-05-08 06:45 37.20555 -4.31595 9976 ft 272 kts 266°
2026-05-08 06:46 37.20518 -4.33980 9978 ft 274 kts 266°
2026-05-08 06:46 37.20482 -4.36366 9981 ft 274 kts 266°
2026-05-08 06:46 37.20448 -4.38753 9981 ft 274 kts 266°
2026-05-08 06:46 37.20416 -4.41139 9981 ft 274 kts 266°
2026-05-08 06:47 37.20384 -4.43525 9981 ft 274 kts 266°
2026-05-08 06:47 37.20350 -4.45913 9978 ft 273 kts 266°
2026-05-08 06:47 37.20315 -4.48295 9977 ft 274 kts 266°
2026-05-08 06:47 37.20280 -4.50642 9849 ft 270 kts 266°
2026-05-08 06:48 37.20245 -4.52957 9720 ft 261 kts 266°
2026-05-08 06:48 37.20212 -4.55192 9582 ft 252 kts 266°
2026-05-08 06:48 37.20182 -4.57353 9454 ft 244 kts 266°
2026-05-08 06:48 37.20154 -4.59441 9335 ft 236 kts 265°
2026-05-08 06:49 37.20124 -4.61462 9182 ft 228 kts 265°
2026-05-08 06:49 37.20093 -4.63443 8917 ft 226 kts 265°
2026-05-08 06:49 37.20062 -4.65408 8614 ft 225 kts 265°
2026-05-08 06:49 37.20032 -4.67368 8305 ft 225 kts 265°
2026-05-08 06:50 37.19999 -4.69325 8005 ft 224 kts 265°
2026-05-08 06:50 37.19971 -4.71250 7693 ft 224 kts 265°
2026-05-08 06:50 37.19957 -4.73201 7388 ft 223 kts 265°
2026-05-08 06:50 37.19945 -4.75148 7084 ft 223 kts 265°
2026-05-08 06:51 37.19922 -4.77079 6977 ft 221 kts 261°
2026-05-08 06:51 37.19421 -4.78847 6980 ft 216 kts 230°
2026-05-08 06:51 37.18259 -4.79979 6980 ft 214 kts 200°
2026-05-08 06:51 37.16787 -4.80218 6982 ft 216 kts 181°
2026-05-08 06:52 37.15277 -4.80194 6976 ft 217 kts 181°
2026-05-08 06:52 37.13788 -4.80170 6977 ft 217 kts 181°
2026-05-08 06:52 37.12279 -4.80149 6979 ft 217 kts 181°
2026-05-08 06:52 37.10773 -4.80130 6980 ft 216 kts 182°
2026-05-08 06:53 37.09268 -4.80112 6983 ft 217 kts 182°
2026-05-08 06:53 37.07761 -4.80097 6983 ft 216 kts 182°
2026-05-08 06:53 37.06256 -4.80082 6982 ft 216 kts 182°
2026-05-08 06:53 37.04751 -4.80067 6983 ft 216 kts 182°
2026-05-08 06:54 37.03267 -4.80051 6985 ft 216 kts 182°
2026-05-08 06:54 37.01761 -4.80031 6987 ft 216 kts 182°
2026-05-08 06:54 37.00259 -4.80014 6986 ft 216 kts 182°
2026-05-08 06:54 36.98754 -4.79998 6954 ft 215 kts 182°
2026-05-08 06:55 36.97263 -4.79984 6699 ft 214 kts 182°
2026-05-08 06:55 36.95783 -4.79969 6414 ft 212 kts 181°
2026-05-08 06:55 36.94313 -4.79950 6117 ft 211 kts 181°
2026-05-08 06:55 36.92861 -4.79764 5982 ft 212 kts 167°
2026-05-08 06:56 36.91467 -4.79179 5763 ft 212 kts 163°
2026-05-08 06:56 36.90099 -4.78582 5522 ft 209 kts 163°
2026-05-08 06:56 36.88751 -4.77994 5385 ft 202 kts 161°
2026-05-08 06:56 36.87449 -4.77429 5239 ft 195 kts 161°
2026-05-08 06:57 36.86230 -4.76744 5002 ft 192 kts 152°
2026-05-08 06:57 36.85060 -4.75949 4772 ft 191 kts 152°
2026-05-08 06:57 36.83892 -4.75161 4542 ft 191 kts 152°
2026-05-08 06:57 36.82733 -4.74381 4461 ft 189 kts 152°
2026-05-08 06:58 36.81578 -4.73605 4261 ft 188 kts 152°
2026-05-08 06:58 36.80419 -4.72825 3985 ft 190 kts 151°
2026-05-08 06:58 36.79274 -4.72054 3727 ft 189 kts 151°
2026-05-08 06:58 36.78122 -4.71259 3489 ft 188 kts 145°
2026-05-08 06:59 36.77211 -4.70113 3445 ft 187 kts 123°
2026-05-08 06:59 36.76601 -4.68704 3212 ft 183 kts 118°
2026-05-08 06:59 36.76025 -4.67305 2958 ft 180 kts 118°
2026-05-08 06:59 36.75449 -4.65920 2745 ft 179 kts 118°
2026-05-08 07:00 36.74877 -4.64549 2498 ft 178 kts 118°
2026-05-08 07:00 36.74308 -4.63189 2255 ft 176 kts 118°
2026-05-08 07:00 36.73750 -4.61857 2019 ft 169 kts 118°
2026-05-08 07:00 36.73229 -4.60613 1803 ft 159 kts 118°
2026-05-08 07:01 36.72738 -4.59440 1602 ft 147 kts 117°
2026-05-08 07:01 36.72279 -4.58346 1430 ft 140 kts 117°
2026-05-08 07:01 36.71831 -4.57278 1241 ft 139 kts 117°
2026-05-08 07:01 36.71396 -4.56241 1047 ft 131 kts 117°
2026-05-08 07:02 36.70976 -4.55240 878 ft 129 kts 116°
2026-05-08 07:02 36.70558 -4.54244 700 ft 130 kts 118°
2026-05-08 07:02 36.70140 -4.53248 536 ft 130 kts 115°
2026-05-08 07:02 36.69730 -4.52274 373 ft 129 kts 116°
2026-05-08 07:03 36.69316 -4.51285 181 ft 130 kts 116°
2026-05-08 07:03 36.68903 -4.50304 57 ft 121 kts 117°
2026-05-08 07:03 36.68576 -4.49523 48 ft 78 kts 117°
2026-05-08 07:03 36.68405 -4.49115 46 ft 28 kts 118°
2026-05-08 07:04 36.68317 -4.48976 44 ft 21 kts 137°
2026-05-08 07:04 36.68224 -4.48888 41 ft 18 kts 152°
2026-05-08 07:04 36.68154 -4.48863 39 ft 8 kts 202°
2026-05-08 07:04 36.68141 -4.48926 37 ft 9 kts 292°
2026-05-08 07:05 36.68175 -4.49008 39 ft 12 kts 297°
2026-05-08 07:05 36.68214 -4.49104 40 ft 14 kts 297°
2026-05-08 07:05 36.68252 -4.49193 39 ft 12 kts 298°
2026-05-08 07:05 36.68284 -4.49278 38 ft 8 kts 282°
2026-05-08 07:06 36.68257 -4.49344 40 ft 10 kts 222°
2026-05-08 07:06 36.68209 -4.49398 41 ft 10 kts 221°
2026-05-08 07:06 36.68152 -4.49460 42 ft 12 kts 221°
2026-05-08 07:06 36.68081 -4.49540 42 ft 15 kts 222°
2026-05-08 07:07 36.67992 -4.49638 42 ft 19 kts 221°
2026-05-08 07:07 36.67899 -4.49740 42 ft 12 kts 220°
2026-05-08 07:07 36.67846 -4.49799 42 ft 9 kts 222°
2026-05-08 07:07 36.67799 -4.49799 42 ft 9 kts 140°
2026-05-08 07:08 36.67750 -4.49731 42 ft 12 kts 131°
2026-05-08 07:08 36.67717 -4.49673 42 ft 3 kts 93°
2026-05-08 07:08 36.67735 -4.49645 41 ft 2 kts 41°
2026-05-08 07:08 36.67747 -4.49632 42 ft 2 kts 41°
2026-05-08 07:09 36.67758 -4.49620 42 ft 1 kts 41°
2026-05-08 07:09 36.67763 -4.49615 42 ft 0 kts 41°